TimePST,TemperatureF,Dew PointF,Humidity,Sea Level PressureIn,VisibilityMPH,Wind Direction,Wind SpeedMPH,Gust SpeedMPH,PrecipitationIn,Events,Conditions,WindDirDegrees,DateUTC
12:11 AM,30.2,26.6,86,29.77,10.0,Calm,Calm,-,N/A,,Overcast,0,2012-11-09 08:11:00
12:56 AM,30.9,27.0,85,29.86,10.0,Calm,Calm,-,N/A,,Overcast,0,2012-11-09 08:56:00
1:56 AM,30.0,26.1,85,29.88,10.0,Calm,Calm,-,N/A,,Overcast,0,2012-11-09 09:56:00
2:56 AM,28.9,25.0,85,29.88,10.0,Calm,Calm,-,N/A,,Mostly Cloudy,0,2012-11-09 10:56:00
3:56 AM,28.0,24.1,85,29.90,10.0,Calm,Calm,-,N/A,,Partly Cloudy,0,2012-11-09 11:56:00
4:56 AM,27.0,23.0,85,29.92,10.0,Calm,Calm,-,N/A,,Clear,0,2012-11-09 12:56:00
5:56 AM,27.0,21.9,81,29.93,10.0,Calm,Calm,-,N/A,,Clear,0,2012-11-09 13:56:00
6:56 AM,24.1,19.9,84,29.95,10.0,NE,3.5,-,N/A,,Clear,50,2012-11-09 14:56:00
7:56 AM,25.0,19.9,81,29.96,10.0,Calm,Calm,-,N/A,,Clear,0,2012-11-09 15:56:00
8:56 AM,30.0,23.0,75,29.95,10.0,Calm,Calm,-,N/A,,Clear,0,2012-11-09 16:56:00
9:56 AM,34.0,25.0,70,29.95,10.0,Calm,Calm,-,N/A,,Clear,0,2012-11-09 17:56:00
10:56 AM,37.9,23.0,55,29.94,10.0,Calm,Calm,-,N/A,,Mostly Cloudy,0,2012-11-09 18:56:00
11:12 AM,35.6,23.0,60,29.84,10.0,Calm,Calm,-,N/A,,Mostly Cloudy,0,2012-11-09 19:12:00
11:21 AM,37.4,23.0,56,29.84,10.0,Calm,Calm,-,N/A,,Overcast,0,2012-11-09 19:21:00
11:44 AM,37.4,24.8,60,29.83,10.0,Calm,Calm,-,N/A,,Scattered Clouds,0,2012-11-09 19:44:00
11:56 AM,37.9,23.0,55,29.92,10.0,Calm,Calm,-,N/A,,Clear,0,2012-11-09 19:56:00
12:56 PM,39.9,24.1,53,29.89,10.0,Calm,Calm,-,N/A,,Mostly Cloudy,0,2012-11-09 20:56:00
1:56 PM,39.0,26.1,60,29.89,10.0,Calm,Calm,-,N/A,,Overcast,0,2012-11-09 21:56:00
2:56 PM,39.0,26.1,60,29.90,10.0,Variable,3.5,-,N/A,,Overcast,0,2012-11-09 22:56:00
3:56 PM,37.0,26.1,65,29.91,9.0,Calm,Calm,-,N/A,,Overcast,0,2012-11-09 23:56:00
4:05 PM,35.6,28.4,75,29.81,4.0,Calm,Calm,-,0.00,Snow,Light Snow,0,2012-11-10 00:05:00
4:16 PM,35.6,28.4,75,29.81,9.0,Variable,4.6,-,0.00,,Overcast,0,2012-11-10 00:16:00
4:56 PM,34.0,28.0,79,29.92,10.0,Calm,Calm,-,0.00,,Overcast,0,2012-11-10 00:56:00
5:56 PM,30.9,27.0,85,29.94,10.0,Calm,Calm,-,N/A,,Mostly Cloudy,0,2012-11-10 01:56:00
6:56 PM,28.0,24.1,85,29.97,7.0,Calm,Calm,-,N/A,,Partly Cloudy,0,2012-11-10 02:56:00
7:08 PM,28.4,24.8,86,29.84,7.0,Calm,Calm,-,N/A,,Partly Cloudy,0,2012-11-10 03:08:00
7:29 PM,28.4,24.8,86,29.84,8.0,Calm,Calm,-,N/A,,Mostly Cloudy,0,2012-11-10 03:29:00
7:48 PM,28.4,24.8,86,29.84,9.0,Calm,Calm,-,N/A,,Overcast,0,2012-11-10 03:48:00
7:56 PM,28.0,24.1,85,29.97,7.0,Calm,Calm,-,N/A,,Overcast,0,2012-11-10 03:56:00
8:17 PM,28.4,24.8,86,29.84,6.0,Calm,Calm,-,N/A,,Haze,0,2012-11-10 04:17:00
8:56 PM,30.0,25.0,82,29.96,7.0,Calm,Calm,-,N/A,,Overcast,0,2012-11-10 04:56:00
9:30 PM,30.2,26.6,86,29.85,2.5,Calm,Calm,-,0.00,Snow,Light Snow,0,2012-11-10 05:30:00
9:39 PM,30.2,26.6,86,29.85,5.0,Calm,Calm,-,0.00,Snow,Light Snow,0,2012-11-10 05:39:00
9:52 PM,30.2,26.6,86,29.85,6.0,Calm,Calm,-,0.00,,Overcast,0,2012-11-10 05:52:00
9:56 PM,30.0,26.1,85,29.95,6.0,Calm,Calm,-,0.00,,Overcast,0,2012-11-10 05:56:00
10:03 PM,30.2,26.6,86,29.85,6.0,Calm,Calm,-,N/A,,Overcast,0,2012-11-10 06:03:00
10:56 PM,30.9,27.0,85,29.94,5.0,Calm,Calm,-,N/A,,Overcast,0,2012-11-10 06:56:00
11:40 PM,30.2,26.6,86,29.85,6.0,Calm,Calm,-,N/A,,Overcast,0,2012-11-10 07:40:00
11:56 PM,30.0,26.1,85,29.95,6.0,Calm,Calm,-,N/A,,Overcast,0,2012-11-10 07:56:00